Observer details:
104 San Marcello Pistoiese.  Observer P. Bacci.  Measurers P. Bacci, L. Tesi,
    G. Fagioli.  0.60-m f/4 reflector + CCD.
160 Castelmartini.  Observers M. Jaeger, E. Prosperi, S. Prosperi, W. Vollmann.
    Measurer E. Prosperi.  0.35-m f/10 Schmidt-Cassegrain + CCD.
204 Schiaparelli Observatory.  Observer L. Buzzi.  0.60-m f/4.64 reflector
    + CCD.
474 Mount John Observatory, Lake Tekapo.  Observers A. C. Gilmore,
    P. M. Kilmartin.  Measurer P. M. Kilmartin.  1.0-m f/7.7 reflector + CCD.
587 Sormano.  Observers P. Ghezzi, F. Manca, P. Sicoli, A. Testa.  Measurer
    P. Sicoli.  0.5-m f/6.8 reflector + CCD.
595 Farra d'Isonzo.  Observers E. Pettarin, F. Piani.  Measurer E. Pettarin.
    0.61-m f/4.0 reflector + CCD.
926 Tenagra II Observatory.  Observers M. Schwartz, P. R. Holvorcem.  Measurer
    M. Schwartz.  0.81-m f/7 Ritchey-Chretien + CCD.
958 Observatoire de Dax.  Observers P. Dupouy, J. B. de Vanssay.  Measurer
    P. Dupouy.  0.43-m f/2.7 reflector + CCD.
E23 Arcadia.  Observer A. Hidas.  0.35-m f/1.9 reflector + CCD.
H21 Astronomical Research Observatory, Westfield.  Observer R. Holmes.
    Measurers S. Foglia, L. Buzzi, T. Linder, R. Holmes.  0.61-m f/4.5
    astrograph + CCD.
H36 Sandlot Observatory, Scranton.  Observer G. Hug.  0.56-m reflector + CCD.
I52 Steward Observatory, Mt. Lemmon Station.  Observer G. J. Leonard.
    Measurers E. J. Christensen, D. C. Fuls, A. R. Gibbs, A. D. Grauer,
    J. A. Johnson, R. A. Kowalski, S. M. Larson, G. J. Leonard, R. G. Matheny,
    R. L. Seaman, F. C. Shelly.  1.0-m reflector + CCD.
I57 Elche.  Observer J. Lozano.  0.25-m f/6.3 Corrected Dall-Kirkham + CCD.
J08 Observatorio Zonalunar, Puzol.  Observer A. Carreno.  Measurer J. Piqueras.
    0.20-m f/5 Newtonian reflector + CCD.
J95 Great Shefford.  Observer P. Birtwhistle.  0.40-m f/6.0 Schmidt-Cassegrain
    + CCD.
K51 Osservatorio del Celado, Castello Tesino.  Observer R. Broccato.  Measurer
    M. Campestrin.  0.80-m f/4 reflector + CCD.
K93 Sutherland-LCOGT C.  Observers T. Lister, S. Greenstreet, E. Gomez.
    Measurer T. Lister.  1.0-m f/8 Ritchey-Chretien + CCD.
Q62 iTelescope Observatory, Siding Spring.  Observer M. Suzuki.  0.51-m f/6.8
    reflector + CCD + focal reducer.
T05 ATLAS-HKO, Haleakala.  Observers L. Denneau, A. Heinze, H. Weiland,
    B. Stalder, J. Tonry, A. Sherstyuk.  Measurers L. Denneau, A. Heinze,
    J. Tonry.  0.5-m f/2.0 Schmidt + CCD.
W88 Slooh.com Chile Observatory, La Dehesa.  Observers J. L. Tuten,
    G. Mitchell.  Measurer J. L. Tuten.  0.35-m f/11 Schmidt-Cassegrain + CCD.
Z58 ESA Cebreros TBT Observatory, Cebreros.  Observers F. Ocana, A. Montero,
    A. Ibarra.  Measurers F. Ocana, M. Micheli.  0.56-m f/2.52 astrograph
    + 4K CCD.
 
Orbital elements:
2016 TL2                                            PHA, Earth MOID = 0.0409 AU
Epoch 2016 July 31.0 TT = JDT 2457600.5                 MPC
M 345.03329              (2000.0)            P               Q
n   0.28943777     Peri.  320.38781     +0.99477615     +0.10018738
a   2.2634240      Node    33.87747     -0.08247481     +0.90177118
e   0.5407755      Incl.    2.01175     -0.06015248     +0.42044170
P   3.41           H   21.9           G   0.15           U   6
Residuals in seconds of arc
161002 T05  0.1-  0.2+    161003 474  0.3+  0.1-    161004 926  0.5-  0.0
161002 T05  1.0-  0.3+    161003 160  0.2+  0.3-    161004 I52  0.0   0.0
161002 T05  0.3-  0.3+    161003 160  0.4-  0.6-    161004 I52  0.0   0.1-
161002 T05  0.2+  0.0     161003 160  0.4-  0.1-    161004 I52  0.3-  0.1+
161002 J95  0.0   0.3-    161003 160  0.1+  0.2+    161004 I52  0.0   0.2-
161002 J95  0.2-  0.1+    161003 160  0.3-  0.3+    161004 587  0.3+  0.2-
161002 J95  0.1+  0.3-    161003 J95  0.2+  0.2-    161004 587  0.1-  0.6-
161002 958  1.1+  0.7+    161003 J95  0.1-  0.3+    161004 587  0.1+  0.3-
161002 958  1.0+  0.4+    161003 J95  0.2+  0.3+    161004 587  0.1+  0.4-
161002 958  1.0+  0.8+    161003 104  0.4+  0.0     161004 595  0.3-  0.4-
161003 K93  0.0   0.1-    161003 104  0.4+  0.1-    161004 K51  0.3-  0.3-
161003 K93  0.1+  0.0     161003 104  0.5+  0.2+    161004 595  0.0   0.0
161003 K93  0.3-  0.1-    161003 Z58  1.1-  0.4+    161004 K51  0.4-  0.0
161003 H21  0.4-  0.0     161003 204  0.2+  0.0     161004 J08  0.2+  0.3+
161003 H21  0.3-  0.0     161003 204  0.0   0.1+    161004 K51  0.2-  0.1+
161003 H21  0.3-  0.1-    161003 204  0.1-  0.0     161004 J08  0.2+  0.2+
161003 W88  0.1-  0.2+    161003 204  0.1+  0.0     161004 595  0.2+  0.1+
161003 W88  0.0   0.2+    161003 204  0.0   0.0     161004 J08  0.3+  0.5+
161003 Q62  0.0   0.0     161003 Z58  0.3+  0.5-    161004 J08  0.4+  0.5+
161003 Q62  0.2-  0.1-    161003 Z58  0.3+  0.7-    161004 160  0.2+  0.5+
161003 E23  0.1-  0.2-    161004 H36  0.4+  0.1+    161004 160  0.1+  0.3+
161003 E23  0.1-  0.2-    161004 H36  0.4-  0.4-    161004 160  0.0   0.1-
161003 E23  0.2-  0.2+    161004 H36  0.0   0.3+    161004 I57 (2.9+  0.6+)
161003 E23  0.0   0.1+    161004 H36  0.6-  0.1-    161004 I57 (2.9+  0.4+)
161003 E23  0.1-  0.2+    161004 926  0.3-  0.1-    161004 I57 (3.3+  0.2+)
161003 E23  0.2-  0.0     161004 926  0.2-  0.0     161004 I57 (1.8+  1.2+)
161003 474  0.3+  0.1-    161004 926  0.3-  0.1-    161004 I57 (2.2+  1.2+)
161003 474  0.3+  0.1-    161004 926  0.3-  0.1+    161004 I57 (1.8+  1.1+)
161003 474  0.2+  0.1-    161004 926  0.3-  0.2-

Ephemeris:
2016 TL2                 a,e,i = 2.26, 0.54, 2                   q = 1.0394
Date    TT    R. A. (2000) Decl.     Delta      r     Elong.  Phase     V
2016 09 05    18 13 30.7 -37 40 13   0.1271  1.0574   109.5    64.0    19.8
...
2016 09 20    19 53 05.6 -38 34 31   0.07933 1.0395   114.4    61.7    18.7
...
2016 09 28    21 46 32.1 -32 16 07   0.06220 1.0433   130.3    47.1    17.7
...
2016 10 04    23 22 23.4 -20 00 39   0.06019 1.0524   149.0    29.3    17.2
2016 10 05    23 36 37.5 -17 36 37   0.06103 1.0544   152.2    26.3    17.1
2016 10 06    23 50 05.3 -15 12 46   0.06221 1.0565   155.2    23.4    17.1
...
2016 10 12    00 54 07.4 -02 30 18   0.07538 1.0721   169.4     9.9    17.1
...
2016 10 20    01 44 05.3 +08 00 55   0.1044  1.1000   177.4     2.3    17.5
...
2016 11 04    02 25 10.0 +16 14 22   0.1792  1.1707   176.9     2.6    18.8

A. U. Tomatic                (C) Copyright 2016 MPC           M.P.E.C. 2016-T34




More information about the Iaude mailing list